Lid_Strength_Index
3 3 3 3 3 2 2 2 2 2 2 2 2 2 2 2 3 4 4 3 0 -1 -0 1 1 2 2 4 3 4 10 10 9 9 8 6 7 5 4 6 5 4 5 4 2
3 4 4 3 3 3 2 2 2 2 2 2 2 2 2 1 4 7 2 -3 -3 -1 1 3 4 3 5 5 5 6 9 8 6 6 7 6 6 6 7 7 7 6 4 3 2
3 4 4 4 4 3 3 3 3 2 2 3 2 2 2 2 4 6 -1 -2 -1 -1 3 5 5 4 5 5 6 7 8 6 6 5 5 6 6 5 7 9 7 7 5 4 3
3 4 4 4 4 4 4 3 3 3 3 3 2 2 2 3 10 2 -1 -1 -1 -0 3 6 6 7 6 7 6 8 6 6 6 5 5 6 5 6 6 7 4 4 4 3 4
4 4 4 4 4 4 4 4 4 3 3 3 3 2 3 6 6 2 -2 -1 0 1 5 6 7 7 7 6 6 8 6 6 5 5 5 5 6 6 6 5 4 4 4 4 4
4 4 4 4 4 3 3 4 4 4 4 3 3 2 5 10 4 3 0 1 1 3 6 6 6 5 6 6 7 6 5 6 6 5 5 6 6 6 6 4 5 4 4 4 4
4 4 4 4 4 4 4 4 4 4 4 4 3 2 6 8 3 0 1 2 2 4 5 6 5 6 6 7 6 7 8 6 6 6 6 6 8 8 5 4 5 5 5 4 4
4 4 4 5 4 4 4 4 4 4 4 3 2 4 8 5 4 4 4 3 2 3 4 5 5 6 7 6 7 9 9 10 7 6 6 7 11 7 5 5 6 5 5 4 4
5 5 5 5 5 5 5 5 4 3 3 2 5 5 7 2 4 4 4 4 2 3 4 3 6 8 7 10 11 11 12 10 9 6 7 8 10 6 5 6 6 6 5 5 5
5 5 5 5 5 5 5 5 4 3 2 1 3 7 4 4 4 3 3 3 4 4 5 6 9 11 11 12 14 13 11 10 10 7 7 9 9 7 6 6 6 6 5 5 5
5 5 5 5 6 6 7 7 7 7 6 6 7 6 6 4 2 4 4 4 4 5 8 7 11 13 11 10 9 9 9 10 8 6 8 9 8 8 6 6 6 6 6 5 5
5 5 6 6 6 6 7 7 8 8 11 7 6 5 4 4 6 4 4 7 6 8 7 9 11 10 9 8 9 9 9 10 8 7 9 9 9 7 6 6 6 6 6 5 5
5 5 6 6 7 7 8 8 5 7 11 9 7 7 6 4 6 6 5 6 7 8 8 9 9 8 9 9 9 10 10 10 10 8 7 9 11 9 7 6 5 5 5 5 5
5 5 5 6 8 9 9 6 6 6 14 10 9 7 6 5 7 3 4 6 7 8 8 9 7 8 10 10 8 11 8 7 8 10 13 8 15 11 8 7 6 6 5 5 4
5 5 6 6 9 9 7 6 6 8 17 6 8 5 6 7 6 6 3 6 8 7 8 10 9 9 10 10 8 9 7 7 8 9 10 10 12 11 8 9 7 6 5 5 4
5 5 6 8 8 7 6 6 8 14 16 8 7 8 9 7 6 5 6 5 5 7 7 8 6 8 9 8 7 7 8 9 9 10 13 11 11 11 10 9 7 6 5 5 4
5 6 7 7 10 7 6 8 14 16 8 9 9 9 9 10 9 7 8 8 9 11 11 8 8 6 6 9 8 9 11 14 15 15 15 11 11 11 8 7 6 6 5 5 4
5 5 6 6 6 6 7 12 16 11 11 7 8 8 10 9 9 9 9 9 7 8 11 11 12 8 6 8 10 9 11 14 17 16 14 11 13 11 6 6 5 5 5 4 4
4 6 6 6 6 6 10 16 14 11 8 11 10 9 10 9 9 9 10 9 7 7 11 11 11 7 6 7 8 11 11 10 13 13 14 13 11 8 7 7 6 6 5 5 4
6 6 5 3 4 7 11 15 13 10 10 11 14 10 11 10 10 10 10 9 8 6 6 9 12 8 7 6 7 9 9 11 12 17 17 13 13 11 9 8 7 6 6 5 4
4 8 4 2 3 8 14 13 12 10 9 11 12 12 12 11 9 10 10 8 7 7 6 8 10 10 8 9 10 11 11 12 12 13 15 16 13 8 8 7 7 7 6 5 4
4 9 3 3 9 9 12 11 10 10 9 11 11 11 12 10 11 10 10 8 6 6 8 7 11 12 10 8 7 9 11 12 14 14 13 13 12 6 7 7 6 7 6 6 4
6 6 2 4 10 9 8 9 9 10 10 11 12 10 10 11 12 10 8 6 6 6 8 7 9 12 12 10 9 10 9 11 12 12 13 14 12 8 6 7 6 6 6 5 5
5 9 6 5 5 8 9 9 11 8 9 10 11 10 11 12 11 11 11 8 7 7 5 5 10 11 12 11 10 11 9 9 12 13 13 12 11 10 8 7 6 6 5 5 5
4 7 6 11 9 8 8 8 9 9 7 8 11 10 11 13 12 12 10 9 8 6 7 7 10 10 9 8 8 10 9 9 11 12 13 11 11 10 8 7 6 5 5 5 5
6 7 6 8 7 8 8 9 8 8 8 10 11 10 10 12 12 13 12 12 11 10 9 8 12 10 11 8 8 9 8 9 9 9 11 10 10 8 7 7 6 6 6 5 5
2 2 5 7 8 9 10 8 8 8 8 7 9 11 10 11 10 10 10 11 11 11 11 10 12 12 13 10 10 11 9 9 9 8 9 11 10 8 8 8 6 6 6 5 5